Regional Weather Roundup
Issued by NWS Newport/Morehead, NC

Current Version | Previous Version | Graphics & Text | Print | Product List | Glossary Off
Versions: 1 2 3 4 5 6 7 8 9 10 11 12 13 14 15 16 17 18 19 20 21 22 23 24 25 26 27 28 29 30 31 32 33 34 35 36 37 38 39 40 41 42 43 44 45 46 47 48

000
ASUS42 KMHX 182026
RWRMHX
WEATHER ROUNDUP FOR EASTERN NORTH CAROLINA
NATIONAL WEATHER SERVICE NEWPORT/MOREHEAD CITY NC
400 PM EDT FRI AUG 18 2017

NOTE: "FAIR" INDICATES FEW OR NO CLOUDS BELOW 12,000 FEET
WITH NO SIGNIFICANT WEATHER AND/OR OBSTRUCTIONS TO VISIBILITY

NCZ015>017-031-032-045>047-102-103-182100-
NORTH COAST

CITY           SKY/WX    TMP DP  RH WIND       PRES   REMARKS
EDENTON        CLOUDY    85  76  74 S17G25    29.89S
ELIZABETH CITY CLOUDY    88  76  67 S13G23    29.87F
KITTY HAWK     LGT RAIN  78  74  87 CALM      29.88F
MANTEO         LGT RAIN  79  74  83 SW13      29.89F

$$

NCZ045>047-081-094-103-104-182100-
CENTRAL COAST

CITY           SKY/WX    TMP DP  RH WIND       PRES   REMARKS
FRISCO         CLOUDY    87  81  82 SW10      29.92F HX 104

$$

NCZ095-097-098-100-101-182100-
SOUTHERN COAST

CITY           SKY/WX    TMP DP  RH WIND       PRES   REMARKS
BEAUFORT       MOSUNNY   88  84  88 SW17      29.91F HX 112
CEDAR ISLAND   NOT AVBL
JACKSONVILLE   PTSUNNY   90  81  74 S10       29.88F HX 109
PINEY ISLAND     N/A    N/A N/A N/A S5        29.91S
WILMINGTON     CLOUDY    92  78  63 S10       29.88F HX 107


$$

NCZ011>013-027>030-043-044-078>080-089-090>093-098-182100-
COASTAL PLAIN

CITY           SKY/WX    TMP DP  RH WIND       PRES   REMARKS
AHOSKIE          N/A     91  78  65 S5        29.85F HX 105
CLINTON        SUNNY     94  76  54 SW8       29.87F HX 107
ELIZABETHTOWN  NOT AVBL
GOLDSBORO      MOSUNNY   94  78  59 SW13      29.87S HX 109
GREENVILLE     MOSUNNY   95  77  55 S10G16    29.88S HX 109
HAVELOCK       CLOUDY    83  78  85 SE6       29.91F THUNDER
KENANSVILLE    PTSUNNY   93  75  55 SW7       29.87S HX 104
KINSTON        NOT AVBL
NEW BERN       CLOUDY    80  79  96 S6        29.91F
RICHLANDS      CLOUDY    93  80  65 S12       29.88F HX 112
ROCKY MOUNT    MOSUNNY   93  78  61 SW12      29.86F HX 108
WASHINGTON     MOSUNNY   86  76  73 SE17G24   29.89R
WHITEVILLE     MOSUNNY   94  74  51 S9        29.88F HX 104

$$

AMZ130-135-150-152-154-156-158-170-250-252-270-ANZ085-086-088-633-658-670-182100-
MARINE OBSERVATIONS

STATION/POSITION TIME  TEMP    WIND        PRES    WAVE   SWELL
                       AIR SEA DIR/SP/G            HT/PER HT/PER
                 (UTC) (F)     (DEG/KT/KT) (MB)    (FT/S) (FT/S)
CHESAPEAKE LIGHT NOT AVBL
64 E VA BEACH    1950   80 78  190/ 14/ 14 1012.5    3/10   2/10
DUCK             2000   83 74  190/ 16/ 21 1011.1
2 E DUCK         2000      80                N/A     2/ 4
OREGON INLET     2000   79 86  220/  9/ 13 1012.2
13E OREGON INLT  1948      81                N/A     3/ 4   2/ 9
HATTERAS CG      2000   85 84  230/  9/ 16 1013.2
DIAMOND BUOY     1950   86 86  210/ 16/ 17 1013.1    3/ 5   2/ 8
CAPE LOOKOUT     2000   86     200/ 13/ 17 1012.8
BEAUFORT LAB     2000   86 83  210/ 13/ 18 1012.2
30 SE NEW RVR IN 1908   83 84  220/ 14/ 19 1013.3
30 SE NEW RVR IN 1943      84                N/A     3/ 5
27 SE WRIGHTSVLE 2008   85 84  200/ 14/ 19 1012.8
5 SE WRIGHTSVLE  2008   85 85  190/ 12/ 21 1012.2
225 S CAPE HAT   1950   84 85  220/  8/ 10 1015.5    3/ 5   2/ 5
41 SE CHARLESTON 2000   84 86  210/ 14/ 16 1013.2

$$




USA.gov is the U.S. government's official web portal to all federal, state and local government web resources and services.